This is the latest recevied weather packets stored in our database for station/object AD7ZD. If no packets are shown the sender has not sent any weather packets the latest 10 day(s).
| Time | Temp. | Humidity | Pressure | Rain* | Wind** | Luminosity | Snow |
|---|---|---|---|---|---|---|---|
| 1777151936 | 18.33° C | 26% | 1003.1 hPa | 0 mm | - | 571 W/m² | - |
| 1777151632 | 17.78° C | 27% | 1003.1 hPa | 0 mm | - | 502 W/m² | - |
| 1777151330 | 17.78° C | 27% | 1003 hPa | 0 mm | - | 553 W/m² | - |
| 1777151029 | 17.78° C | 27% | 1003.4 hPa | 0 mm | - | 586 W/m² | - |
| 1777150724 | 18.89° C | 28% | 1003.2 hPa | 0 mm | - | 603 W/m² | - |
| 1777150420 | 17.22° C | 27% | 1003.1 hPa | 0 mm | - | 610 W/m² | - |
| 1777150117 | 17.78° C | 28% | 1003.5 hPa | 0 mm | - | 522 W/m² | - |
| 1777149812 | 17.78° C | 27% | 1003.6 hPa | 0 mm | - | 416 W/m² | - |
| 1777149510 | 17.78° C | 28% | 1003.6 hPa | 0 mm | - | 394 W/m² | - |
| 1777149206 | 17.22° C | 27% | 1003.8 hPa | 0 mm | - | 569 W/m² | - |
| 1777148900 | 17.22° C | 28% | 1003.7 hPa | 0 mm | - | 620 W/m² | - |
| 1777148597 | 17.78° C | 27% | 1004 hPa | 0 mm | - | 747 W/m² | - |
| 1777148293 | 17.78° C | 29% | 1003.9 hPa | 0 mm | - | 615 W/m² | - |
| 1777147989 | 16.67° C | 29% | 1004.2 hPa | 0 mm | - | 692 W/m² | - |
| 1777147685 | 16.67° C | 31% | 1003.9 hPa | 0 mm | - | 406 W/m² | - |
| 1777147382 | 16.11° C | 30% | 1004.2 hPa | 0 mm | - | 418 W/m² | - |
| 1777147076 | 16.67° C | 31% | 1004 hPa | 0 mm | - | 438 W/m² | - |
| 1777146773 | 16.67° C | 30% | 1004.2 hPa | 0 mm | - | 570 W/m² | - |
| 1777146468 | 16.67° C | 31% | 1004.4 hPa | 0 mm | - | 602 W/m² | - |
| 1777146165 | 18.33° C | 30% | 1004.5 hPa | 0 mm | - | 681 W/m² | - |
| 1777145861 | 17.78° C | 31% | 1004.7 hPa | 0 mm | - | 847 W/m² | - |
| 1777145557 | 16.11° C | 33% | 1004.7 hPa | 0 mm | - | 684 W/m² | - |
| 1777145253 | 16.11° C | 32% | 1005.2 hPa | 0 mm | - | 511 W/m² | - |
| 1777144948 | 16.67° C | 31% | 1005.4 hPa | 0 mm | - | 798 W/m² | - |
| 1777144647 | 16.11° C | 32% | 1005.1 hPa | 0 mm | - | 829 W/m² | - |
* Rain latest hour (hover to see other rain measurements)
** Current wind speed in m/s (hover to see current wind gust speed)